Hourly Data Report for April 06, 2019

MIRAMICHI RCS
NEW BRUNSWICK
Current Station Operator: ECCC - MSC

47°00'34.000" N
65°27'54.000" W
33.00 m
8100989
71744
ACQ

Download Data

Hourly Data (April 2019)
Hourly Data Report for April 6, 2019
TIME
LST
Temp Definition
°C
Dew Point Definition
°C
Rel Hum Definition
%
Precip. Amount Definition
mm

Wind Dir Definition
10's deg

Wind Spd Definition
km/h
Visibility Definition
km
Stn Press Definition
kPa
Hmdx Definition


Wind Chill Definition


Weather Definition


00:00 -0.8 -11.6 44 0.0 19 5   101.74   -2 LegendNANA
01:00 0.0 -11.8 41 0.0 21 14   101.67   -4 LegendNANA
02:00 0.4 -11.7 40 0.0 22 21   101.57     LegendNANA
03:00 0.3 -10.7 43 0.0 23 14   101.49     LegendNANA
04:00 0.7 -9.0 48 0.0 22 25   101.43     LegendNANA
05:00 -1.1 -3.8 82 0.0 22 20   101.39   -7 LegendNANA
06:00 -1.1 -2.7 89 0.0 20 21   101.32   -7 LegendNANA
07:00 -0.6 -2.4 88 0.0 23 20   101.30   -6 LegendNANA
08:00 0.3 -1.9 86 0.0 23 23   101.25     LegendNANA
09:00 1.1 -1.4 83 0.0 24 25   101.18     LegendNANA
10:00 2.3 -1.3 77 0.0 24 23   101.11     LegendNANA
11:00 3.9 -1.4 68 0.0 24 23   101.05     LegendNANA
12:00 4.3 -1.1 68 0.0 24 22   101.00     LegendNANA
13:00 4.3 -0.2 73 0.0 24 25   100.96     LegendNANA
14:00 5.1 -0.2 69 0.0 24 22   100.88     LegendNANA
15:00 6.1 -1.8 57 0.0 27 22   100.90     LegendNANA
16:00 6.1 -2.1 56 0.0 27 17   100.86     LegendNANA
17:00 5.8 -2.3 56 0.0 29 17   100.91     LegendNANA
18:00 5.5 -2.2 57 0.0 26 11   100.98     LegendNANA
19:00 4.9 -2.3 60 0.0 27 11   101.03     LegendNANA
20:00 4.7 -3.2 57 0.0 28 13   101.10     LegendNANA
21:00 3.1 -2.3 67 0.0 26 7   101.13     LegendNANA
22:00 2.1 -2.5 72 0.0 27 7   101.15     LegendNANA
23:00 0.7 -2.7 78 0.0 27 9   101.15     LegendNANA

Notes on Data Quality.

Legend

  • E = Estimated
  • M = Missing
  • NA = Not Available*
  • [empty] = Indicates an unobserved value
Date modified: